Weather History for Hyannis, MA

Change the Weather History Date:

Wednesday, February 6, 2013

  Actual Average Record
Temperature  
Mean Temperature 34 °F -  
Max Temperature 39 °F 34 °F 62 °F (1991)
Min Temperature 28 °F 19 °F 2 °F (1961)
Degree Days  
Heating Degree Days 30    
Moisture  
Dew Point 26 °F    
Average Humidity 77    
Maximum Humidity 100    
Minimum Humidity 41    
Precipitation  
Precipitation 0.00 in - - ()
Sea Level Pressure  
Sea Level Pressure 29.99 in    
Wind  
Wind Speed 5 mph (NW)    
Max Wind Speed 15 mph    
Max Gust Speed 20 mph    
Visibility 9 miles    
Events Snow    
Averages and records for this station are not official NWS values.
T = Trace of Precipitation, MM = Missing Value Source: NWS Daily Summary

Daily Weather History Graph

Daily Weather History Graph

Search for Another Location

Airport:

Trip Planner

Search our weather history database for the weather conditions in past years. The results will help you decide how hot, cold, wet, or windy it might be!

Date:

Astronomy

Feb. 06, 2013 Rise Set
Actual Time 6:47 AM EST 5:03 PM EST
Civil Twilight 6:18 AM EST 5:32 PM EST
Nautical Twilight 5:45 AM EST 6:05 PM EST
Astronomical Twilight 5:13 AM EST 6:37 PM EST
Moon 3:29 AM EST (2/6) 1:16 PM EST (2/6)
Length of Visible Light 11h 14m
Length of Day
10h 15m
Waning Crescent, 17% of the Moon is Illuminated
Feb 6
Waning Crescent
Feb 10
New
Feb 17
First Quarter
Feb 25
Full
Mar 4
Last Quarter

Hourly Weather History & Observations

Time (EST) Temp. Windchill Dew Point Humidity Pressure Visibility Wind Dir Wind Speed Gust Speed Precip Events Conditions
12:56 AM 30.9 °F 27.5 °F 30.0 °F 96% 29.89 in 9.0 mi NNE 3.5 mph - N/A   Overcast
1:03 AM 30.2 °F 26.7 °F 30.2 °F 100% 29.88 in 9.0 mi NNE 3.5 mph - N/A   Overcast
1:56 AM 32.0 °F 25.6 °F 30.9 °F 96% 29.90 in 10.0 mi NNW 6.9 mph - N/A   Overcast
2:47 AM 32.0 °F 27.5 °F 30.2 °F 93% 29.88 in 7.0 mi NNW 4.6 mph - 0.00 in Snow Light Snow
2:56 AM 32.0 °F 27.5 °F 30.9 °F 96% 29.90 in 7.0 mi NNW 4.6 mph - 0.00 in Snow Light Snow
3:23 AM 32.0 °F 28.7 °F 30.2 °F 93% 29.89 in 4.0 mi North 3.5 mph - 0.00 in Snow Light Snow
3:35 AM 32.0 °F 28.7 °F 32.0 °F 100% 29.88 in 5.0 mi North 3.5 mph - 0.00 in Snow Light Snow
3:56 AM 32.0 °F 28.7 °F 30.9 °F 96% 29.89 in 5.0 mi NNW 3.5 mph - 0.00 in Snow Light Snow
4:08 AM 32.0 °F - 30.2 °F 93% 29.89 in 6.0 mi Calm Calm - 0.00 in Snow Light Snow
4:23 AM 32.0 °F 28.7 °F 32.0 °F 100% 29.89 in 6.0 mi NNW 3.5 mph - 0.00 in   Overcast
5:13 AM 33.8 °F 29.6 °F 32.0 °F 93% 29.91 in 10.0 mi North 4.6 mph - N/A   Overcast
5:49 AM 33.8 °F 30.8 °F 32.0 °F 93% 29.91 in 10.0 mi NNW 3.5 mph - N/A   Overcast
5:56 AM 33.1 °F 30.0 °F 32.0 °F 96% 29.92 in 10.0 mi NNW 3.5 mph - N/A   Overcast
6:31 AM 32.0 °F 27.5 °F 32.0 °F 100% 29.93 in 7.0 mi NNW 4.6 mph - N/A   Overcast
6:56 AM 32.0 °F 28.7 °F 30.9 °F 96% 29.94 in 7.0 mi NW 3.5 mph - N/A   Overcast
7:56 AM 32.0 °F - 32.0 °F 100% 29.97 in 5.0 mi Calm Calm - N/A   Overcast
8:56 AM 33.1 °F - 32.0 °F 96% 29.99 in 6.0 mi Calm Calm - N/A   Overcast
9:56 AM 34.0 °F 28.8 °F 30.9 °F 89% 29.99 in 10.0 mi West 5.8 mph - N/A   Overcast
10:49 AM 33.8 °F 27.0 °F 28.4 °F 81% 29.99 in 9.0 mi WNW 8.1 mph - N/A   Overcast
10:56 AM 34.0 °F 26.0 °F 28.9 °F 82% 30.00 in 10.0 mi WNW 10.4 mph - N/A   Overcast
11:31 AM 35.6 °F 29.2 °F 28.4 °F 75% 29.98 in 10.0 mi WNW 8.1 mph - N/A   Overcast
11:56 AM 36.0 °F 28.5 °F 28.9 °F 76% 29.99 in 10.0 mi WSW 10.4 mph - N/A   Mostly Cloudy
12:56 PM 39.0 °F 31.4 °F 28.0 °F 65% 29.98 in 10.0 mi WSW 12.7 mph - N/A   Mostly Cloudy
1:56 PM 39.0 °F 30.6 °F 24.1 °F 55% 29.98 in 10.0 mi WSW 15.0 mph 19.6 mph N/A   Partly Cloudy
2:56 PM 39.0 °F 32.8 °F 21.9 °F 50% 30.00 in 10.0 mi West 9.2 mph - N/A   Overcast
3:56 PM 37.9 °F 30.9 °F 19.9 °F 48% 30.02 in 10.0 mi WNW 10.4 mph 19.6 mph N/A   Overcast
4:56 PM 36.0 °F 29.6 °F 17.1 °F 46% 30.05 in 10.0 mi West 8.1 mph - N/A   Partly Cloudy
5:56 PM 33.1 °F 30.0 °F 18.0 °F 54% 30.09 in 10.0 mi West 3.5 mph - N/A   Clear
6:56 PM 33.1 °F 27.7 °F 17.1 °F 52% 30.12 in 10.0 mi West 5.8 mph - N/A   Clear
7:56 PM 32.0 °F 26.4 °F 16.0 °F 52% 30.15 in 10.0 mi West 5.8 mph - N/A   Clear
8:56 PM 30.9 °F 23.5 °F 12.0 °F 46% 30.18 in 10.0 mi NW 8.1 mph 16.1 mph N/A   Clear
9:56 PM 30.9 °F 24.3 °F 10.9 °F 43% 30.20 in 10.0 mi WNW 6.9 mph - N/A   Clear
10:56 PM 30.0 °F 21.7 °F 9.0 °F 41% 30.23 in 10.0 mi NW 9.2 mph 17.3 mph N/A   Clear
11:56 PM 28.0 °F 20.0 °F 8.1 °F 43% 30.25 in 10.0 mi WNW 8.1 mph - N/A   Clear